Вернуться в каталог

COSMOS 1389

АктивенВоенныеLEO
NORAD 13376·PAYLOAD·🇷🇺 Russia

Запущен Jul 21, 1982 с Plesetsk Cosmodrome

Loading…

Ближайшие Пролёты (ближайшие 24 часа)

TLE

СвежийSource: Space-Track

Эпоха: Sep 14, 2026, 04:16 UTC

1 13376U 82073B   26257.17832997  .00000005  00000-0  13096-3 0  9995
2 13376  74.0188 343.3151 0041401 131.7321 239.4889 12.55405645 23328

Отслеживайте COSMOS 1389 в реальном времени с AllMySat

Download on the App Store